QPF
0.00 0.00 0.00 0.00 0.00 0.00 0.01 0.01 0.01 0.02 0.05 0.10 0.16 0.18 0.13 0.07 0.06 0.06 0.05 0.05 0.06 0.05 0.03 0.02 0.01 0.02 0.02 0.02 0.03 0.03 0.03 0.03 0.03 0.04 0.04 0.05 0.06 0.05 0.05 0.05 0.04 0.04 0.05 0.06
0.00 0.00 0.00 0.00 0.00 0.00 0.01 0.02 0.03 0.01 0.01 0.02 0.06 0.09 0.09 0.03 0.03 0.04 0.04 0.04 0.05 0.03 0.02 0.02 0.03 0.02 0.03 0.04 0.03 0.03 0.03 0.03 0.02 0.03 0.02 0.02 0.02 0.03 0.04 0.04 0.04 0.03 0.03 0.04
0.00 0.00 0.00 0.00 0.00 0.00 0.04 0.05 0.03 0.01 0.01 0.03 0.06 0.13 0.08 0.05 0.03 0.03 0.03 0.03 0.03 0.05 0.04 0.03 0.03 0.02 0.01 0.02 0.03 0.04 0.05 0.04 0.02 0.02 0.02 0.02 0.02 0.01 0.02 0.03 0.03 0.02 0.02 0.02
0.00 0.00 0.00 0.00 0.00 0.00 0.02 0.01 0.00 0.01 0.04 0.11 0.10 0.24 0.23 0.12 0.07 0.04 0.03 0.03 0.03 0.07 0.05 0.02 0.03 0.01 0.01 0.01 0.01 0.04 0.04 0.04 0.04 0.03 0.03 0.02 0.02 0.01 0.02 0.02 0.01 0.01 0.01 0.01
0.00 0.00 0.00 0.00 0.00 0.00 0.00 0.00 0.00 0.01 0.06 0.18 0.12 0.14 0.20 0.15 0.08 0.05 0.04 0.02 0.02 0.03 0.03 0.02 0.01 0.01 0.01 0.01 0.01 0.01 0.01 0.01 0.01 0.01 0.01 0.01 0.01 0.01 0.01 0.01 0.01 0.01 0.01 0.01
0.00 0.00 0.00 0.00 0.00 0.00 0.00 0.00 0.02 0.04 0.08 0.26 0.17 0.11 0.14 0.12 0.08 0.05 0.02 0.01 0.01 0.01 0.02 0.02 0.01 0.01 0.01 0.00 0.00 0.00 0.00 0.00 0.00 0.00 0.00 0.01 0.01 0.01 0.01 0.01 0.01 0.01 0.01 0.01
0.01 0.01 0.00 0.00 0.00 0.00 0.00 0.03 0.17 0.29 0.29 0.19 0.07 0.05 0.06 0.03 0.01 0.02 0.01 0.00 0.00 0.01 0.01 0.01 0.00 0.00 0.00 0.00 0.00 0.00 0.00 0.00 0.00 0.00 0.01 0.01 0.01 0.01 0.01 0.01 0.01 0.01 0.00 0.00
0.01 0.02 0.01 0.00 0.00 0.00 0.00 0.03 0.12 0.19 0.19 0.14 0.05 0.06 0.04 0.01 0.00 0.00 0.00 0.00 0.00 0.00 0.00 0.00 0.00 0.00 0.00 0.00 0.00 0.00 0.00 0.00 0.00 0.00 0.01 0.01 0.00 0.00 0.00 0.00 0.00 0.01 0.00 0.00
0.01 0.02 0.01 0.00 0.00 0.00 0.00 0.01 0.01 0.02 0.03 0.08 0.05 0.04 0.01 0.00 0.00 0.00 0.00 0.00 0.00 0.00 0.00 0.00 0.00 0.00 0.00 0.00 0.00 0.00 0.00 0.00 0.00 0.00 0.01 0.00 0.00 0.00 0.00 0.00 0.01 0.01 0.01 0.01
0.00 0.01 0.01 0.00 0.00 0.00 0.00 0.00 0.00 0.00 0.01 0.05 0.05 0.03 0.03 0.01 0.00 0.00 0.00 0.00 0.00 0.00 0.00 0.00 0.00 0.00 0.00 0.00 0.00 0.00 0.00 0.00 0.00 0.00 0.00 0.00 0.00 0.00 0.00 0.00 0.01 0.01 0.01 0.01
0.00 0.00 0.01 0.00 0.00 0.01 0.00 0.00 0.00 0.00 0.00 0.02 0.06 0.05 0.04 0.02 0.00 0.00 0.00 0.00 0.00 0.00 0.00 0.00 0.00 0.00 0.00 0.00 0.00 0.00 0.00 0.00 0.00 0.00 0.00 0.00 0.00 0.00 0.00 0.01 0.01 0.01 0.01 0.01
0.00 0.00 0.01 0.01 0.01 0.01 0.00 0.00 0.00 0.00 0.01 0.00 0.02 0.03 0.03 0.02 0.00 0.00 0.00 0.00 0.00 0.00 0.00 0.00 0.00 0.00 0.00 0.00 0.00 0.00 0.00 0.00 0.00 0.00 0.00 0.00 0.00 0.01 0.01 0.01 0.01 0.00 0.01 0.01
0.00 0.00 0.03 0.07 0.05 0.02 0.00 0.00 0.00 0.00 0.00 0.00 0.02 0.03 0.01 0.00 0.00 0.00 0.00 0.00 0.00 0.00 0.00 0.00 0.00 0.00 0.00 0.00 0.00 0.00 0.00 0.00 0.00 0.00 0.00 0.00 0.00 0.01 0.01 0.00 0.00 0.00 0.01 0.01
0.00 0.00 0.04 0.13 0.09 0.02 0.01 0.00 0.00 0.00 0.00 0.01 0.02 0.02 0.00 0.00 0.00 0.00 0.00 0.00 0.00 0.00 0.00 0.00 0.00 0.00 0.00 0.00 0.00 0.00 0.00 0.00 0.00 0.00 0.00 0.00 0.00 0.00 0.00 0.00 0.00 0.00 0.01 0.01
0.00 0.00 0.02 0.03 0.01 0.01 0.00 0.00 0.00 0.00 0.00 0.00 0.00 0.01 0.00 0.00 0.00 0.00 0.00 0.00 0.00 0.00 0.00 0.00 0.00 0.00 0.00 0.00 0.00 0.00 0.00 0.00 0.00 0.00 0.00 0.00 0.00 0.00 0.01 0.00 0.00 0.00 0.00 0.00
0.00 0.00 0.01 0.01 0.00 0.00 0.00 0.00 0.00 0.00 0.00 0.00 0.00 0.00 0.00 0.00 0.00 0.00 0.00 0.00 0.00 0.00 0.00 0.00 0.00 0.00 0.00 0.00 0.00 0.00 0.00 0.00 0.00 0.00 0.00 0.00 0.00 0.00 0.00 0.00 0.00 0.00 0.01 0.01
0.00 0.00 0.00 0.01 0.01 0.00 0.00 0.00 0.00 0.00 0.00 0.00 0.00 0.00 0.00 0.00 0.00 0.00 0.00 0.00 0.00 0.00 0.00 0.00 0.00 0.00 0.00 0.00 0.00 0.00 0.00 0.00 0.00 0.00 0.00 0.00 0.00 0.00 0.00 0.00 0.00 0.01 0.01 0.01
0.00 0.00 0.00 0.01 0.01 0.02 0.01 0.00 0.00 0.00 0.00 0.00 0.00 0.00 0.00 0.00 0.00 0.00 0.00 0.00 0.00 0.00 0.00 0.00 0.00 0.00 0.00 0.00 0.00 0.00 0.00 0.00 0.00 0.00 0.00 0.00 0.00 0.00 0.00 0.00 0.01 0.01 0.02 0.02
0.01 0.00 0.00 0.01 0.03 0.03 0.02 0.01 0.00 0.00 0.00 0.00 0.00 0.00 0.00 0.00 0.00 0.00 0.00 0.00 0.00 0.00 0.00 0.00 0.00 0.00 0.00 0.00 0.00 0.00 0.00 0.00 0.00 0.00 0.00 0.00 0.00 0.00 0.00 0.00 0.01 0.01 0.02 0.02
0.01 0.01 0.01 0.02 0.07 0.04 0.03 0.02 0.01 0.00 0.00 0.00 0.00 0.00 0.00 0.00 0.00 0.00 0.00 0.00 0.00 0.00 0.00 0.00 0.00 0.00 0.00 0.00 0.00 0.00 0.00 0.00 0.00 0.00 0.00 0.00 0.00 0.00 0.00 0.01 0.01 0.01 0.02 0.02
0.02 0.01 0.01 0.02 0.04 0.02 0.02 0.01 0.01 0.01 0.01 0.00 0.00 0.00 0.00 0.00 0.00 0.00 0.00 0.00 0.00 0.00 0.00 0.00 0.00 0.00 0.00 0.00 0.00 0.00 0.00 0.00 0.00 0.00 0.00 0.00 0.01 0.01 0.01 0.01 0.02 0.02 0.02 0.03
0.01 0.00 0.01 0.02 0.04 0.04 0.04 0.02 0.01 0.02 0.02 0.01 0.00 0.00 0.00 0.00 0.00 0.00 0.00 0.00 0.00 0.00 0.00 0.00 0.00 0.00 0.00 0.00 0.00 0.00 0.00 0.00 0.00 0.00 0.00 0.01 0.01 0.01 0.01 0.01 0.02 0.03 0.03 0.03
0.02 0.01 0.03 0.06 0.07 0.05 0.04 0.03 0.04 0.04 0.01 0.00 0.00 0.00 0.00 0.00 0.00 0.00 0.00 0.00 0.00 0.00 0.00 0.00 0.00 0.00 0.00 0.00 0.00 0.00 0.00 0.00 0.00 0.00 0.00 0.01 0.01 0.02 0.02 0.02 0.02 0.03 0.04 0.03
0.02 0.02 0.02 0.04 0.08 0.10 0.07 0.03 0.01 0.01 0.00 0.00 0.00 0.00 0.00 0.00 0.00 0.00 0.00 0.00 0.00 0.00 0.00 0.00 0.00 0.00 0.00 0.00 0.00 0.00 0.00 0.00 0.00 0.00 0.00 0.00 0.01 0.01 0.01 0.01 0.01 0.02 0.03 0.03
0.02 0.01 0.02 0.02 0.03 0.06 0.06 0.03 0.01 0.00 0.00 0.00 0.00 0.00 0.00 0.00 0.00 0.00 0.00 0.00 0.00 0.00 0.00 0.00 0.00 0.00 0.00 0.00 0.00 0.00 0.00 0.00 0.00 0.00 0.00 0.00 0.00 0.00 0.01 0.01 0.01 0.01 0.02 0.01
0.01 0.01 0.02 0.03 0.02 0.02 0.07 0.05 0.01 0.01 0.00 0.00 0.00 0.00 0.00 0.00 0.00 0.00 0.00 0.00 0.00 0.00 0.00 0.00 0.00 0.00 0.00 0.00 0.00 0.00 0.00 0.00 0.00 0.00 0.01 0.00 0.00 0.00 0.00 0.00 0.01 0.01 0.01 0.00
MSLP
1008.20 1008.20 1008.15 1008.19 1008.43 1008.95 1009.77 1010.85 1012.04 1013.17 1014.08 1014.62 1014.72 1014.39 1013.71 1012.82 1011.92 1011.15 1010.63 1010.43 1010.51 1010.81 1011.23 1011.63 1011.93 1012.08 1012.08 1011.97 1011.80 1011.64 1011.56 1011.57 1011.66 1011.80 1011.95 1012.05 1012.08 1012.04 1011.94 1011.83 1011.76 1011.77 1011.89 1012.12
1008.36 1008.26 1008.10 1008.04 1008.22 1008.72 1009.57 1010.70 1011.99 1013.24 1014.26 1014.90 1015.07 1014.77 1014.10 1013.19 1012.25 1011.45 1010.91 1010.69 1010.79 1011.11 1011.55 1011.97 1012.28 1012.43 1012.42 1012.28 1012.08 1011.91 1011.82 1011.84 1011.95 1012.11 1012.26 1012.35 1012.34 1012.23 1012.04 1011.81 1011.63 1011.54 1011.57 1011.74
1008.37 1008.18 1007.95 1007.83 1007.98 1008.49 1009.39 1010.61 1011.98 1013.32 1014.43 1015.13 1015.33 1015.04 1014.35 1013.41 1012.42 1011.57 1011.00 1010.77 1010.87 1011.21 1011.68 1012.15 1012.50 1012.69 1012.70 1012.58 1012.41 1012.25 1012.18 1012.22 1012.36 1012.54 1012.70 1012.79 1012.75 1012.58 1012.31 1011.99 1011.71 1011.51 1011.46 1011.57
1008.21 1007.97 1007.70 1007.58 1007.75 1008.31 1009.28 1010.57 1012.04 1013.45 1014.61 1015.34 1015.55 1015.25 1014.52 1013.52 1012.48 1011.58 1010.97 1010.71 1010.81 1011.17 1011.68 1012.20 1012.62 1012.87 1012.94 1012.88 1012.76 1012.64 1012.61 1012.68 1012.84 1013.04 1013.22 1013.30 1013.25 1013.05 1012.73 1012.35 1011.99 1011.71 1011.59 1011.63
1007.98 1007.70 1007.43 1007.34 1007.56 1008.19 1009.23 1010.60 1012.12 1013.59 1014.77 1015.51 1015.71 1015.37 1014.60 1013.55 1012.46 1011.51 1010.86 1010.58 1010.67 1011.05 1011.61 1012.19 1012.68 1013.01 1013.16 1013.17 1013.11 1013.04 1013.05 1013.14 1013.32 1013.53 1013.72 1013.81 1013.76 1013.55 1013.22 1012.81 1012.41 1012.09 1011.90 1011.88
1007.74 1007.45 1007.21 1007.16 1007.44 1008.13 1009.23 1010.64 1012.19 1013.66 1014.84 1015.56 1015.73 1015.36 1014.55 1013.48 1012.35 1011.37 1010.70 1010.41 1010.50 1010.91 1011.50 1012.14 1012.71 1013.12 1013.35 1013.44 1013.43 1013.41 1013.43 1013.54 1013.72 1013.93 1014.12 1014.22 1014.19 1014.00 1013.69 1013.30 1012.90 1012.56 1012.34 1012.25
1007.59 1007.31 1007.10 1007.09 1007.42 1008.15 1009.26 1010.66 1012.17 1013.59 1014.72 1015.40 1015.54 1015.15 1014.34 1013.26 1012.14 1011.17 1010.51 1010.23 1010.34 1010.76 1011.39 1012.08 1012.71 1013.20 1013.50 1013.65 1013.69 1013.70 1013.73 1013.82 1013.98 1014.18 1014.36 1014.47 1014.47 1014.33 1014.06 1013.72 1013.35 1013.03 1012.79 1012.68
1007.59 1007.34 1007.17 1007.19 1007.53 1008.24 1009.29 1010.61 1012.02 1013.34 1014.37 1014.98 1015.09 1014.70 1013.91 1012.89 1011.83 1010.91 1010.30 1010.05 1010.19 1010.64 1011.30 1012.03 1012.71 1013.25 1013.61 1013.80 1013.88 1013.89 1013.91 1013.98 1014.11 1014.27 1014.44 1014.56 1014.58 1014.49 1014.30 1014.02 1013.72 1013.43 1013.20 1013.07
1007.75 1007.56 1007.43 1007.47 1007.79 1008.41 1009.35 1010.50 1011.74 1012.89 1013.78 1014.30 1014.37 1014.00 1013.29 1012.36 1011.41 1010.61 1010.08 1009.90 1010.08 1010.56 1011.24 1011.99 1012.69 1013.27 1013.67 1013.90 1013.99 1014.01 1014.01 1014.05 1014.13 1014.25 1014.39 1014.51 1014.56 1014.52 1014.39 1014.19 1013.96 1013.72 1013.52 1013.38
1008.04 1007.93 1007.86 1007.91 1008.16 1008.67 1009.42 1010.35 1011.34 1012.27 1012.99 1013.40 1013.44 1013.12 1012.51 1011.73 1010.94 1010.28 1009.87 1009.79 1010.02 1010.52 1011.21 1011.96 1012.67 1013.26 1013.69 1013.94 1014.05 1014.08 1014.07 1014.07 1014.11 1014.19 1014.30 1014.39 1014.45 1014.45 1014.38 1014.25 1014.08 1013.90 1013.73 1013.59
1008.38 1008.39 1008.39 1008.45 1008.64 1008.99 1009.51 1010.18 1010.89 1011.57 1012.09 1012.38 1012.39 1012.13 1011.65 1011.05 1010.45 1009.97 1009.71 1009.72 1010.01 1010.53 1011.21 1011.94 1012.64 1013.23 1013.67 1013.95 1014.09 1014.13 1014.12 1014.10 1014.11 1014.15 1014.22 1014.29 1014.35 1014.36 1014.33 1014.24 1014.12 1013.98 1013.83 1013.70
1008.68 1008.84 1008.94 1009.02 1009.14 1009.34 1009.64 1010.02 1010.45 1010.85 1011.17 1011.34 1011.33 1011.14 1010.80 1010.39 1010.00 1009.72 1009.61 1009.72 1010.05 1010.58 1011.23 1011.93 1012.60 1013.18 1013.62 1013.92 1014.10 1014.17 1014.19 1014.18 1014.17 1014.19 1014.22 1014.26 1014.29 1014.30 1014.27 1014.20 1014.10 1013.98 1013.85 1013.72
1008.87 1009.20 1009.41 1009.54 1009.61 1009.67 1009.76 1009.88 1010.03 1010.19 1010.31 1010.37 1010.34 1010.22 1010.04 1009.82 1009.64 1009.54 1009.58 1009.78 1010.14 1010.65 1011.26 1011.90 1012.52 1013.08 1013.53 1013.86 1014.08 1014.20 1014.26 1014.28 1014.29 1014.29 1014.30 1014.30 1014.29 1014.27 1014.22 1014.14 1014.04 1013.93 1013.80 1013.67
1008.91 1009.40 1009.74 1009.92 1009.97 1009.94 1009.85 1009.76 1009.67 1009.61 1009.56 1009.53 1009.49 1009.44 1009.39 1009.36 1009.36 1009.44 1009.60 1009.88 1010.26 1010.74 1011.28 1011.85 1012.42 1012.93 1013.38 1013.74 1014.01 1014.20 1014.32 1014.39 1014.42 1014.42 1014.41 1014.38 1014.33 1014.26 1014.17 1014.06 1013.94 1013.81 1013.68 1013.55
1008.80 1009.43 1009.88 1010.13 1010.19 1010.09 1009.88 1009.62 1009.35 1009.11 1008.93 1008.82 1008.77 1008.79 1008.87 1008.99 1009.17 1009.39 1009.67 1010.00 1010.38 1010.82 1011.29 1011.78 1012.28 1012.75 1013.18 1013.56 1013.87 1014.13 1014.31 1014.43 1014.50 1014.52 1014.49 1014.43 1014.34 1014.22 1014.08 1013.93 1013.78 1013.63 1013.49 1013.35
1008.60 1009.32 1009.86 1010.17 1010.25 1010.12 1009.83 1009.45 1009.04 1008.67 1008.39 1008.22 1008.18 1008.26 1008.44 1008.70 1009.02 1009.37 1009.74 1010.11 1010.50 1010.89 1011.29 1011.70 1012.12 1012.53 1012.94 1013.32 1013.67 1013.97 1014.21 1014.39 1014.49 1014.53 1014.50 1014.41 1014.28 1014.12 1013.93 1013.74 1013.55 1013.38 1013.22 1013.08
1008.37 1009.13 1009.71 1010.06 1010.16 1010.02 1009.69 1009.23 1008.73 1008.27 1007.91 1007.70 1007.66 1007.79 1008.06 1008.43 1008.87 1009.33 1009.78 1010.21 1010.60 1010.96 1011.30 1011.63 1011.97 1012.32 1012.68 1013.05 1013.41 1013.74 1014.02 1014.23 1014.37 1014.42 1014.39 1014.29 1014.13 1013.93 1013.70 1013.48 1013.26 1013.07 1012.90 1012.76
1008.17 1008.91 1009.49 1009.86 1009.96 1009.82 1009.46 1008.96 1008.40 1007.88 1007.47 1007.22 1007.18 1007.34 1007.68 1008.14 1008.68 1009.24 1009.77 1010.25 1010.66 1011.01 1011.30 1011.58 1011.85 1012.14 1012.46 1012.79 1013.14 1013.47 1013.76 1014.00 1014.15 1014.21 1014.18 1014.07 1013.89 1013.66 1013.42 1013.17 1012.93 1012.73 1012.56 1012.42
1008.04 1008.72 1009.28 1009.62 1009.72 1009.57 1009.19 1008.66 1008.06 1007.49 1007.03 1006.76 1006.71 1006.88 1007.26 1007.79 1008.41 1009.06 1009.67 1010.22 1010.67 1011.03 1011.32 1011.56 1011.79 1012.02 1012.29 1012.58 1012.89 1013.21 1013.49 1013.72 1013.88 1013.94 1013.91 1013.79 1013.60 1013.36 1013.10 1012.84 1012.60 1012.40 1012.22 1012.09
1007.99 1008.59 1009.08 1009.39 1009.47 1009.30 1008.91 1008.35 1007.71 1007.10 1006.60 1006.29 1006.22 1006.39 1006.79 1007.36 1008.05 1008.77 1009.47 1010.08 1010.60 1011.00 1011.31 1011.55 1011.76 1011.96 1012.18 1012.43 1012.70 1012.98 1013.24 1013.46 1013.60 1013.66 1013.62 1013.50 1013.31 1013.07 1012.81 1012.55 1012.31 1012.10 1011.93 1011.81
1007.98 1008.50 1008.92 1009.19 1009.23 1009.04 1008.63 1008.05 1007.38 1006.73 1006.18 1005.83 1005.72 1005.86 1006.26 1006.85 1007.58 1008.36 1009.13 1009.83 1010.42 1010.89 1011.24 1011.51 1011.73 1011.92 1012.12 1012.33 1012.57 1012.81 1013.04 1013.23 1013.35 1013.40 1013.36 1013.24 1013.06 1012.82 1012.56 1012.30 1012.06 1011.85 1011.69 1011.57
1007.97 1008.41 1008.78 1009.00 1009.01 1008.80 1008.36 1007.76 1007.07 1006.38 1005.79 1005.38 1005.22 1005.32 1005.68 1006.27 1007.01 1007.83 1008.65 1009.42 1010.09 1010.64 1011.06 1011.38 1011.63 1011.84 1012.03 1012.23 1012.44 1012.66 1012.86 1013.02 1013.14 1013.17 1013.13 1013.01 1012.83 1012.60 1012.34 1012.08 1011.85 1011.64 1011.48 1011.36
1007.91 1008.30 1008.62 1008.81 1008.79 1008.56 1008.12 1007.50 1006.79 1006.07 1005.43 1004.97 1004.75 1004.79 1005.09 1005.64 1006.36 1007.19 1008.05 1008.87 1009.61 1010.23 1010.73 1011.12 1011.42 1011.66 1011.88 1012.08 1012.28 1012.48 1012.67 1012.82 1012.92 1012.95 1012.91 1012.79 1012.61 1012.38 1012.12 1011.87 1011.63 1011.43 1011.27 1011.16
1007.78 1008.15 1008.44 1008.59 1008.57 1008.33 1007.89 1007.27 1006.55 1005.82 1005.15 1004.64 1004.35 1004.32 1004.55 1005.04 1005.71 1006.51 1007.37 1008.21 1008.99 1009.67 1010.24 1010.69 1011.05 1011.34 1011.58 1011.81 1012.02 1012.22 1012.40 1012.55 1012.64 1012.68 1012.63 1012.52 1012.34 1012.12 1011.86 1011.61 1011.37 1011.17 1011.01 1010.90
1007.59 1007.94 1008.22 1008.36 1008.34 1008.11 1007.69 1007.10 1006.39 1005.66 1004.98 1004.44 1004.09 1003.99 1004.14 1004.54 1005.14 1005.88 1006.69 1007.51 1008.30 1009.00 1009.61 1010.11 1010.52 1010.85 1011.14 1011.39 1011.62 1011.83 1012.02 1012.17 1012.27 1012.30 1012.26 1012.15 1011.98 1011.76 1011.50 1011.25 1011.01 1010.81 1010.66 1010.56
1007.39 1007.73 1008.00 1008.15 1008.13 1007.93 1007.55 1007.00 1006.35 1005.65 1004.98 1004.43 1004.04 1003.88 1003.94 1004.24 1004.74 1005.38 1006.12 1006.88 1007.63 1008.31 1008.92 1009.44 1009.87 1010.24 1010.55 1010.83 1011.08 1011.30 1011.50 1011.65 1011.75 1011.79 1011.76 1011.65 1011.48 1011.26 1011.02 1010.76 1010.53 1010.33 1010.19 1010.11
Thickness
5809 5795 5788 5797 5807 5802 5795 5787 5781 5783 5792 5778 5759 5744 5752 5763 5768 5764 5763 5761 5759 5758 5761 5763 5762 5761 5757 5753 5751 5748 5745 5743 5741 5737 5734 5732 5730 5731 5730 5729 5727 5724 5722 5720
5799 5791 5806 5815 5813 5804 5794 5782 5780 5786 5794 5781 5762 5753 5757 5765 5764 5763 5761 5758 5756 5754 5752 5753 5754 5754 5751 5747 5746 5742 5739 5737 5735 5732 5731 5729 5727 5726 5726 5725 5722 5719 5716 5714
5796 5808 5822 5814 5805 5796 5789 5783 5783 5780 5780 5777 5760 5743 5750 5757 5763 5762 5761 5759 5756 5752 5748 5748 5748 5748 5747 5744 5741 5738 5734 5731 5729 5728 5726 5724 5722 5721 5719 5717 5715 5714 5712 5710
5806 5819 5816 5807 5802 5797 5781 5796 5792 5783 5764 5745 5746 5716 5731 5744 5748 5754 5755 5755 5754 5753 5750 5748 5747 5745 5744 5742 5739 5734 5729 5725 5723 5722 5718 5714 5712 5709 5710 5710 5710 5708 5707 5705
5802 5813 5809 5799 5804 5804 5795 5801 5788 5771 5749 5730 5728 5719 5719 5735 5735 5747 5752 5754 5754 5753 5751 5748 5746 5744 5742 5741 5737 5732 5726 5721 5719 5716 5714 5709 5706 5704 5704 5703 5702 5701 5701 5700
5808 5821 5817 5812 5815 5813 5808 5794 5772 5751 5733 5710 5719 5720 5716 5734 5743 5749 5754 5756 5755 5754 5751 5748 5746 5743 5740 5738 5734 5729 5721 5717 5714 5712 5709 5705 5700 5698 5696 5695 5694 5694 5694 5693
5789 5801 5813 5818 5803 5807 5800 5771 5729 5708 5695 5706 5735 5732 5735 5754 5762 5760 5757 5758 5758 5756 5752 5747 5743 5739 5736 5733 5729 5724 5718 5712 5710 5707 5704 5700 5697 5694 5692 5690 5688 5686 5685 5684
5773 5770 5792 5807 5802 5792 5792 5779 5740 5715 5705 5718 5738 5734 5750 5771 5774 5771 5768 5765 5761 5756 5752 5747 5743 5739 5735 5731 5725 5721 5715 5709 5706 5703 5699 5696 5693 5690 5688 5684 5681 5679 5678 5676
5777 5771 5800 5811 5816 5807 5789 5784 5788 5762 5743 5723 5731 5745 5757 5775 5773 5772 5768 5764 5759 5756 5752 5747 5744 5739 5734 5729 5723 5719 5713 5707 5703 5700 5696 5694 5690 5686 5683 5679 5677 5675 5672 5670
5799 5779 5797 5809 5812 5810 5804 5799 5788 5770 5744 5726 5724 5735 5740 5754 5763 5767 5766 5762 5759 5756 5752 5748 5743 5737 5732 5727 5722 5718 5712 5706 5702 5698 5694 5692 5688 5684 5680 5676 5672 5669 5666 5662
5808 5784 5786 5795 5788 5787 5792 5791 5786 5780 5770 5740 5714 5726 5767 5765 5768 5767 5767 5765 5760 5755 5752 5747 5742 5736 5731 5726 5721 5715 5710 5706 5701 5697 5692 5688 5684 5681 5677 5673 5669 5665 5661 5657
5806 5790 5770 5774 5791 5802 5797 5790 5786 5764 5760 5764 5746 5739 5781 5778 5778 5775 5771 5768 5763 5758 5754 5748 5741 5734 5728 5723 5718 5713 5708 5704 5699 5696 5691 5686 5682 5678 5673 5669 5665 5661 5657 5652
5799 5777 5752 5745 5753 5772 5778 5789 5792 5784 5772 5761 5744 5740 5780 5781 5779 5778 5773 5767 5761 5756 5751 5745 5738 5731 5725 5720 5715 5711 5706 5701 5697 5693 5687 5683 5678 5673 5668 5664 5660 5656 5652 5647
5800 5776 5757 5733 5737 5754 5766 5782 5791 5784 5767 5758 5752 5752 5767 5773 5774 5774 5770 5765 5759 5753 5746 5741 5733 5728 5723 5718 5713 5708 5704 5699 5694 5689 5683 5678 5674 5669 5664 5660 5656 5652 5647 5642
5796 5773 5770 5771 5777 5777 5779 5785 5791 5786 5782 5769 5766 5767 5771 5776 5776 5773 5769 5763 5757 5750 5744 5738 5731 5726 5721 5716 5710 5706 5701 5696 5691 5685 5680 5676 5671 5667 5662 5657 5652 5648 5643 5639
5790 5771 5767 5768 5780 5782 5783 5793 5795 5792 5791 5786 5783 5777 5787 5786 5782 5773 5767 5761 5754 5749 5744 5738 5732 5725 5718 5713 5708 5704 5698 5693 5688 5682 5678 5674 5669 5664 5658 5653 5649 5644 5639 5634
5784 5772 5761 5759 5775 5776 5769 5789 5792 5792 5796 5789 5777 5779 5786 5779 5775 5769 5765 5760 5754 5749 5744 5737 5731 5724 5718 5713 5707 5701 5697 5692 5686 5681 5676 5672 5666 5660 5655 5650 5645 5640 5634 5629
5780 5770 5763 5759 5758 5739 5772 5804 5804 5796 5796 5798 5792 5788 5786 5780 5778 5775 5770 5761 5755 5750 5744 5737 5731 5724 5718 5713 5707 5701 5696 5691 5685 5680 5675 5670 5664 5658 5652 5646 5641 5635 5630 5625
5788 5770 5759 5753 5746 5750 5772 5790 5794 5785 5784 5798 5791 5787 5785 5784 5775 5769 5771 5764 5756 5751 5744 5738 5732 5725 5717 5711 5705 5699 5693 5689 5684 5678 5673 5668 5661 5655 5649 5643 5637 5632 5626 5621
5780 5774 5758 5753 5739 5733 5759 5786 5801 5787 5768 5794 5791 5783 5780 5774 5755 5757 5766 5762 5755 5749 5743 5736 5730 5723 5715 5709 5703 5695 5690 5686 5681 5676 5671 5665 5659 5652 5646 5640 5635 5629 5623 5618
5752 5757 5755 5750 5744 5753 5777 5793 5791 5756 5759 5789 5790 5783 5777 5770 5765 5765 5764 5757 5751 5745 5740 5734 5727 5719 5712 5707 5700 5692 5687 5683 5679 5674 5668 5662 5656 5650 5645 5639 5633 5627 5621 5616
5752 5753 5752 5747 5736 5742 5779 5783 5769 5764 5781 5786 5787 5785 5778 5772 5768 5764 5758 5751 5746 5740 5735 5730 5722 5715 5710 5705 5697 5689 5684 5681 5677 5671 5665 5660 5654 5648 5645 5637 5631 5625 5619 5613
5764 5766 5758 5746 5740 5753 5768 5772 5775 5779 5777 5782 5785 5783 5778 5770 5764 5759 5753 5747 5742 5737 5732 5727 5719 5712 5707 5702 5695 5687 5683 5679 5673 5667 5661 5657 5652 5647 5641 5635 5629 5623 5618 5611
5762 5771 5763 5750 5748 5750 5756 5766 5777 5782 5781 5783 5784 5781 5776 5768 5763 5756 5749 5743 5738 5734 5728 5723 5716 5709 5703 5699 5694 5688 5682 5676 5669 5663 5658 5654 5650 5645 5641 5635 5628 5622 5615 5609
5758 5760 5756 5751 5757 5758 5759 5767 5773 5779 5780 5781 5780 5778 5773 5767 5760 5753 5745 5740 5735 5730 5725 5720 5713 5706 5701 5697 5691 5686 5681 5674 5666 5660 5656 5651 5648 5645 5639 5634 5628 5621 5615 5608
5764 5759 5751 5744 5754 5756 5756 5764 5770 5770 5770 5772 5771 5768 5768 5764 5756 5750 5742 5737 5732 5726 5721 5715 5709 5703 5699 5694 5688 5683 5678 5671 5663 5657 5652 5649 5646 5643 5638 5632 5627 5622 5614 5607